COSMOS 2499 DEB

基本信息
目录编号:
60612
目录名称:
COSMOS 2499 DEB
国际标识:
2014-028BY
轨道中心:
EARTH
物体状态:
在轨
发射日期:
2014-05-23 UTC
轨道信息
数据来源: 国际轨道数据
星历时间: 2026-09-10T15:19:53+0800
半长轴: 7531.517km
偏心率: 0.0304955
轨道倾角: 82.142°
近地点辐角: 298.854°
升交点赤经: 93.942°
平近点角: 58.229°
近地点: 923.702km
远地点: 1383.058km
周期: 108.413分钟
每日圈数: 13.282479
详细信息
发射场:
PKMTR
轨道高度:
LEO
数据来源:
AOE Integration Group
参考系:
TEME
时间系统:
UTC
历元类型:
SGP4
2D轨道图
3D轨道图
轨道高度分析图
轨道倾角分析图
轨道综合分析图
查看轨道综合分析图